Previsão horária em Almunecar

Hoje, 20 Janeiro, Quarta-feira

Tempo Temperatura Precipitação Vento Pressão Humidade
00:00 +12°C° 0 mm 2 m/s 763 mmHg 64%
01:00 +12°C° 0 mm 2 m/s 763 mmHg 62%
02:00 +12°C° 0 mm 2 m/s 762 mmHg 61%
03:00 +12°C° 0 mm 2 m/s 762 mmHg 59%
04:00 +12°C° 0 mm 2 m/s 761 mmHg 60%
05:00 +12°C° 0 mm 2 m/s 761 mmHg 60%
06:00 +12°C° 0 mm 2 m/s 761 mmHg 61%
07:00 +12°C° 0 mm 3 m/s 761 mmHg 63%
08:00 +12°C° 0 mm 3 m/s 760 mmHg 65%
09:00 +13°C° 0 mm 3 m/s 760 mmHg 67%
10:00 +13°C° 0.1 mm 4 m/s 760 mmHg 71%
11:00 +14°C° 0.1 mm 5 m/s 760 mmHg 75%
12:00 +13°C° 0 mm 4 m/s 760 mmHg 82%
13:00 +13°C° 0.7 mm 4 m/s 760 mmHg 86%
14:00 +13°C° 0.7 mm 3 m/s 759 mmHg 89%
15:00 +13°C° 0.7 mm 3 m/s 758 mmHg 93%
16:00 +13°C° 2.8 mm 4 m/s 758 mmHg 94%
17:00 +13°C° 2.8 mm 4 m/s 758 mmHg 96%
18:00 +13°C° 2.8 mm 4 m/s 758 mmHg 97%
19:00 +13°C° 1 mm 4 m/s 759 mmHg 95%
20:00 +13°C° 1 mm 5 m/s 759 mmHg 94%
21:00 +13°C° 1 mm 5 m/s 759 mmHg 92%
22:00 +12°C° 0.1 mm 5 m/s 760 mmHg 89%
23:00 +12°C° 0.1 mm 5 m/s 760 mmHg 86%

Amanhã, 21 Janeiro, Quinta-feira

Tempo Temperatura Precipitação Vento Pressão Humidade
00:00 +10°C° 0.1 mm 6 m/s 761 mmHg 83%
01:00 +12°C° 0 mm 5 m/s 761 mmHg 83%
02:00 +12°C° 0 mm 5 m/s 761 mmHg 83%
03:00 +12°C° 0 mm 4 m/s 761 mmHg 83%
04:00 +12°C° 0 mm 4 m/s 761 mmHg 84%
05:00 +12°C° 0 mm 4 m/s 762 mmHg 85%
06:00 +12°C° 0 mm 4 m/s 762 mmHg 86%
07:00 +13°C° 0 mm 4 m/s 762 mmHg 84%
08:00 +13°C° 0 mm 4 m/s 763 mmHg 82%
09:00 +14°C° 0 mm 4 m/s 763 mmHg 80%
10:00 +14°C° 0 mm 5 m/s 763 mmHg 76%
11:00 +15°C° 0 mm 5 m/s 763 mmHg 73%
12:00 +16°C° 0 mm 6 m/s 763 mmHg 69%
13:00 +16°C° 0 mm 6 m/s 763 mmHg 70%
14:00 +16°C° 0 mm 7 m/s 762 mmHg 71%
15:00 +16°C° 0 mm 7 m/s 761 mmHg 73%
16:00 +15°C° 0 mm 7 m/s 762 mmHg 77%
17:00 +15°C° 0 mm 7 m/s 762 mmHg 82%
18:00 +14°C° 0 mm 7 m/s 762 mmHg 86%
19:00 +14°C° 0 mm 6 m/s 762 mmHg 86%
20:00 +14°C° 0 mm 6 m/s 762 mmHg 86%
21:00 +13°C° 0 mm 6 m/s 762 mmHg 86%
22:00 +13°C° 0 mm 6 m/s 762 mmHg 85%
23:00 +13°C° 0 mm 5 m/s 762 mmHg 83%

Depois de amanhã, 22 Janeiro, Sexta-feira

Tempo Temperatura Precipitação Vento Pressão Humidade
00:00 +13°C° 0 mm 5 m/s 762 mmHg 82%
01:00 +13°C° 0 mm 6 m/s 761 mmHg 83%
02:00 +13°C° 0 mm 6 m/s 761 mmHg 83%
03:00 +12°C° 0 mm 7 m/s 760 mmHg 84%
04:00 +12°C° 0.1 mm 7 m/s 760 mmHg 87%
05:00 +12°C° 0.1 mm 7 m/s 760 mmHg 90%
06:00 +14°C° 0.1 mm 7 m/s 760 mmHg 94%
07:00 +14°C° 0.3 mm 6 m/s 760 mmHg 93%
08:00 +14°C° 0.3 mm 6 m/s 760 mmHg 92%
09:00 +15°C° 0.3 mm 6 m/s 760 mmHg 92%
10:00 +15°C° 0.1 mm 6 m/s 760 mmHg 87%
11:00 +16°C° 0.1 mm 7 m/s 760 mmHg 81%
12:00 +17°C° 0.1 mm 7 m/s 760 mmHg 76%
13:00 +16°C° 0 mm 8 m/s 760 mmHg 72%
14:00 +16°C° 0 mm 8 m/s 760 mmHg 68%
15:00 +16°C° 0 mm 8 m/s 759 mmHg 65%
16:00 +15°C° 0 mm 8 m/s 760 mmHg 69%
17:00 +13°C° 0 mm 8 m/s 760 mmHg 74%
18:00 +12°C° 0 mm 7 m/s 761 mmHg 79%
19:00 +11°C° 0 mm 7 m/s 761 mmHg 79%
20:00 +11°C° 0 mm 7 m/s 762 mmHg 80%
21:00 +10°C° 0 mm 7 m/s 763 mmHg 80%
22:00 +10°C° 0 mm 8 m/s 763 mmHg 80%
23:00 +10°C° 0 mm 8 m/s 763 mmHg 80%

23 Janeiro, Sábado

Tempo Temperatura Precipitação Vento Pressão Humidade
00:00 +8°C° 0 mm 9 m/s 763 mmHg 79%
01:00 +9°C° 0 mm 8 m/s 763 mmHg 79%
02:00 +9°C° 0 mm 8 m/s 763 mmHg 79%
03:00 +7°C° 0 mm 8 m/s 763 mmHg 79%
04:00 +7°C° 0 mm 8 m/s 763 mmHg 79%
05:00 +8°C° 0 mm 7 m/s 763 mmHg 78%
06:00 +8°C° 0 mm 7 m/s 763 mmHg 78%
07:00 +9°C° 0 mm 7 m/s 763 mmHg 76%
08:00 +9°C° 0 mm 7 m/s 764 mmHg 74%
09:00 +10°C° 0 mm 7 m/s 764 mmHg 72%
10:00 +11°C° 0 mm 7 m/s 763 mmHg 69%
11:00 +12°C° 0 mm 7 m/s 763 mmHg 65%
12:00 +14°C° 0 mm 7 m/s 763 mmHg 62%
13:00 +14°C° 0 mm 7 m/s 763 mmHg 63%
14:00 +14°C° 0 mm 7 m/s 762 mmHg 64%
15:00 +14°C° 0 mm 7 m/s 761 mmHg 64%
16:00 +12°C° 0 mm 7 m/s 761 mmHg 68%
17:00 +13°C° 0 mm 6 m/s 761 mmHg 72%
18:00 +11°C° 0 mm 6 m/s 761 mmHg 75%
19:00 +11°C° 0 mm 6 m/s 761 mmHg 77%
20:00 +11°C° 0 mm 6 m/s 761 mmHg 79%
21:00 +11°C° 0 mm 6 m/s 761 mmHg 80%
22:00 +11°C° 0 mm 6 m/s 761 mmHg 81%
23:00 +13°C° 0 mm 6 m/s 760 mmHg 82%

24 Janeiro, Domingo

Tempo Temperatura Precipitação Vento Pressão Humidade
00:00 +12°C° 0 mm 7 m/s 760 mmHg 83%
01:00 +12°C° 0.1 mm 7 m/s 759 mmHg 84%
02:00 +12°C° 0.1 mm 7 m/s 759 mmHg 86%
03:00 +12°C° 0.1 mm 8 m/s 758 mmHg 87%
04:00 +12°C° 0.1 mm 8 m/s 758 mmHg 88%
05:00 +12°C° 0.1 mm 8 m/s 758 mmHg 89%
06:00 +13°C° 0.1 mm 8 m/s 758 mmHg 90%
07:00 +13°C° 0.2 mm 8 m/s 759 mmHg 90%
08:00 +13°C° 0.2 mm 8 m/s 759 mmHg 90%
09:00 +13°C° 0.2 mm 8 m/s 760 mmHg 89%
10:00 +15°C° 0 mm 8 m/s 760 mmHg 78%
11:00 +16°C° 0 mm 8 m/s 760 mmHg 67%
12:00 +17°C° 0 mm 9 m/s 760 mmHg 56%
13:00 +17°C° 0 mm 8 m/s 759 mmHg 53%
14:00 +17°C° 0 mm 8 m/s 759 mmHg 49%
15:00 +17°C° 0 mm 8 m/s 759 mmHg 46%
16:00 +16°C° 0 mm 7 m/s 759 mmHg 53%
17:00 +14°C° 0 mm 7 m/s 760 mmHg 59%
18:00 +12°C° 0 mm 7 m/s 760 mmHg 65%
19:00 +13°C° 0 mm 6 m/s 760 mmHg 67%
20:00 +11°C° 0 mm 6 m/s 761 mmHg 69%
21:00 +11°C° 0 mm 6 m/s 761 mmHg 71%
22:00 +11°C° 0 mm 6 m/s 761 mmHg 71%
23:00 +11°C° 0 mm 6 m/s 761 mmHg 70%

25 Janeiro, Segunda-feira

Tempo Temperatura Precipitação Vento Pressão Humidade
00:00 +11°C° 0 mm 6 m/s 762 mmHg 70%
01:00 +12°C° 0 mm 5 m/s 762 mmHg 71%
02:00 +12°C° 0 mm 5 m/s 762 mmHg 72%
03:00 +12°C° 0 mm 5 m/s 762 mmHg 73%
04:00 +11°C° 0 mm 4 m/s 762 mmHg 73%
05:00 +11°C° 0 mm 3 m/s 762 mmHg 72%
06:00 +11°C° 0 mm 3 m/s 762 mmHg 72%
07:00 +13°C° 0 mm 2 m/s 763 mmHg 70%
08:00 +13°C° 0 mm 2 m/s 763 mmHg 69%
09:00 +14°C° 0 mm 2 m/s 764 mmHg 67%
10:00 +15°C° 0 mm 2 m/s 764 mmHg 63%
11:00 +16°C° 0 mm 2 m/s 764 mmHg 60%
12:00 +17°C° 0 mm 2 m/s 764 mmHg 57%
13:00 +17°C° 0 mm 2 m/s 764 mmHg 57%
14:00 +17°C° 0 mm 2 m/s 764 mmHg 58%
15:00 +18°C° 0 mm 1 m/s 764 mmHg 59%
16:00 +16°C° 0 mm 1 m/s 764 mmHg 64%
17:00 +15°C° 0 mm 1 m/s 764 mmHg 70%
18:00 +13°C° 0 mm 1 m/s 765 mmHg 76%
19:00 +13°C° 0 mm 1 m/s 765 mmHg 76%
20:00 +12°C° 0 mm 0 m/s 766 mmHg 75%
21:00 +12°C° 0 mm 0 m/s 767 mmHg 75%
22:00 +13°C° 0 mm 1 m/s 767 mmHg 76%
23:00 +12°C° 0 mm 1 m/s 767 mmHg 76%
Mostrar mais

Necessitamos do seu Consentimento

A Meteoprog e os seus Fornecedores de Serviços podem armazenar e aceder a dados pessoais como cookies, identificadores do dispositivo ou outras tecnologias semelhantes existentes no seu dispositivo e processar estes dados para personalizar conteúdos e anúncios, assim como funcionalidades nas redes sociais e análise de tráfego.

  • Armazenar e/ou aceder a informações no seu dispositivo

    Os cookies, identificadores do dispositivo ou outras informações podem ser armazenados ou acedidos no seu dispositivo, para os fins acima indicados.

  • Anúncios e conteúdos personalizados, medição de anúncios e conteúdos, dados sobre o público-alvo e desenvolvimento de produtos

    Os anúncios e os conteúdos podem ser personalizados com base num perfil. Podem ser adicionados dados adicionais para uma maior personalização dos anúncios e dos conteúdos. A eficácia dos anúncios e dos conteúdos pode ser medida. Podem ser obtidas informações sobre o público que visualizou os anúncios e os conteúdos. Estes dados podem ser usados para desenvolver ou melhorar sistemas, softwares ou a experiência do utilizador.

Ao clicar em "Eu concordo”, permitirá o uso de cookies, identificadores do dispositivo e web beacons mencionados ou outras tecnologias semelhantes. As configurações do navegador do seu dispositivo podem ser alteradas.

Para certos fins, podem ser invocados interesses legítimos ao invés de consentimento. Pode ler mais informação sobre este assunto na nossa Política de Privacidade e Cookies.